Haines, AK

1:13 AM AKST on February 21, 2017 (GMT -0900)
Haines

Weather History for PAHN - September, 2013

Change the Weather History Date:

Thursday, September 12, 2013

  Actual Average Record
Temperature  
Mean Temperature 56 °F -  
Max Temperature 61 °F 53 °F 72 °F (1986)
Min Temperature 50 °F 44 °F 37 °F (1976)
Degree Days  
Heating Degree Days 10    
Growing Degree Days 6 (Base 50)    
Moisture  
Dew Point 51 °F    
Average Humidity 91    
Maximum Humidity 100    
Minimum Humidity 72    
Precipitation  
Precipitation 0.02 in - - ()
Sea Level Pressure  
Sea Level Pressure 30.04 in    
Wind  
Wind Speed 7 mph (WNW)    
Max Wind Speed 13 mph    
Max Gust Speed -    
Visibility 10 miles    
Events Rain    
Averages and records for this station are not official NWS values.
T = Trace of Precipitation, MM = Missing Value Source: NWS Daily Summary

Daily Weather History Graph

Daily Weather History Graph

Search for Another Location

Airport or City:

Trip Planner

Search our weather history database for the weather conditions in past years. The results will help you decide how hot, cold, wet, or windy it might be!

Date:

Astronomy

Sep. 12, 2013 Rise Set
Actual Time 6:24 AM AKDT 7:29 PM AKDT
Civil Twilight 5:43 AM AKDT 8:11 PM AKDT
Nautical Twilight 4:51 AM AKDT 9:02 PM AKDT
Astronomical Twilight 3:52 AM AKDT 10:00 PM AKDT
Moon 3:36 PM AKDT (9/12) 10:58 PM AKDT (9/12)
Length of Visible Light 14h 28m
Length of Day
13h 05m
First Quarter, 51% of the Moon is Illuminated
Sep 12
First Quarter
Sep 19
Full
Sep 26
Last Quarter
Oct 4
New
Oct 11
First Quarter

Hourly Weather History & Observations

Time (AKDT) Temp. Dew Point Humidity Pressure Visibility Wind Dir Wind Speed Gust Speed Precip Events Conditions
12:54 AM 55.0 °F 53.1 °F 93% 29.97 in 10.0 mi SSW 4.6 mph - 0.02 in Rain Light Rain
1:54 AM 54.0 °F 53.1 °F 97% 29.99 in 10.0 mi Calm Calm - 0.00 in   Overcast
2:50 AM 53.6 °F 53.6 °F 100% 30.00 in 10.0 mi WNW 10.4 mph - N/A   Overcast
2:54 AM 54.0 °F 53.1 °F 97% 30.01 in 10.0 mi WNW 10.4 mph - N/A   Overcast
3:54 AM 54.0 °F 52.0 °F 93% 30.02 in 10.0 mi NW 4.6 mph - N/A   Overcast
4:54 AM 53.1 °F 52.0 °F 96% 30.03 in 10.0 mi WNW 12.7 mph - N/A   Overcast
5:07 AM 53.6 °F 51.8 °F 94% 30.02 in 10.0 mi WNW 10.4 mph - N/A   Overcast
5:27 AM 51.8 °F 51.8 °F 100% 30.03 in 7.0 mi WNW 10.4 mph - N/A   Overcast
5:37 AM 51.8 °F 51.8 °F 100% 30.03 in 8.0 mi WNW 11.5 mph - N/A   Overcast
5:54 AM 53.1 °F 52.0 °F 96% 30.04 in 10.0 mi WNW 8.1 mph - N/A   Overcast
6:26 AM 51.8 °F 51.8 °F 100% 30.03 in 10.0 mi WNW 10.4 mph - N/A   Overcast
6:54 AM 52.0 °F 51.1 °F 97% 30.05 in 10.0 mi WNW 10.4 mph - N/A   Overcast
7:54 AM 52.0 °F 50.0 °F 93% 30.06 in 10.0 mi WNW 11.5 mph - N/A   Overcast
8:37 AM 51.8 °F 50.0 °F 94% 30.06 in 10.0 mi WNW 12.7 mph - N/A   Overcast
8:54 AM 53.1 °F 50.0 °F 89% 30.06 in 10.0 mi WNW 10.4 mph - N/A   Overcast
9:47 AM 53.6 °F 50.0 °F 88% 30.06 in 10.0 mi WNW 10.4 mph - N/A   Overcast
9:54 AM 54.0 °F 50.0 °F 86% 30.07 in 10.0 mi WNW 9.2 mph - N/A   Overcast
10:02 AM 53.6 °F 51.8 °F 94% 30.06 in 10.0 mi WNW 10.4 mph - N/A   Mostly Cloudy
10:54 AM 57.0 °F 50.0 °F 77% 30.07 in 10.0 mi West 10.4 mph - N/A   Clear
11:54 AM 60.1 °F 51.1 °F 72% 30.08 in 10.0 mi WNW 5.8 mph - N/A   Clear
12:54 PM 57.0 °F 51.1 °F 81% 30.07 in 10.0 mi Calm Calm - N/A   Clear
1:54 PM 59.0 °F 52.0 °F 78% 30.06 in 10.0 mi South 4.6 mph - N/A   Clear
2:54 PM 61.0 °F 53.1 °F 75% 30.04 in 10.0 mi SE 5.8 mph - N/A   Clear
3:54 PM 60.1 °F 51.1 °F 72% 30.05 in 10.0 mi ESE 6.9 mph - N/A   Clear
4:54 PM 57.9 °F 52.0 °F 81% 30.05 in 10.0 mi SE 4.6 mph - N/A   Clear
5:54 PM 55.9 °F 51.1 °F 84% 30.04 in 10.0 mi East 3.5 mph - N/A   Clear
6:54 PM 54.0 °F 52.0 °F 93% 30.04 in 10.0 mi ESE 4.6 mph - N/A   Clear
7:54 PM 52.0 °F 51.1 °F 97% 30.04 in 10.0 mi Calm Calm - N/A   Clear
8:54 PM 52.0 °F 51.1 °F 97% 30.05 in 10.0 mi East 3.5 mph - N/A   Partly Cloudy
9:09 PM 53.6 °F 51.8 °F 94% 30.04 in 10.0 mi Calm Calm - N/A   Mostly Cloudy
9:54 PM 52.0 °F 50.0 °F 93% 30.05 in 10.0 mi East 6.9 mph - N/A   Mostly Cloudy
10:03 PM 51.8 °F 50.0 °F 94% 30.05 in 10.0 mi ESE 6.9 mph - N/A   Scattered Clouds
10:54 PM 50.0 °F 48.9 °F 96% 30.06 in 10.0 mi Calm Calm - N/A   Scattered Clouds
11:22 PM 51.8 °F 48.2 °F 88% 30.06 in 10.0 mi East 4.6 mph - N/A   Overcast
11:54 PM 51.1 °F 50.0 °F 96% 30.07 in 10.0 mi ESE 4.6 mph - N/A   Overcast